Location: Toronto
(43.6672°N, 79.4170°W)
Time: 23:40:03
(UTC-04:00)

Daily predictions for brighter satellites

Satellite Brightness Start Highest point End
(mag) Time Altitude Azimuth Time Altitude Azimuth Time Altitude Azimuth
NOSS 3-3 (A) 4.0 20:32:00 10° SSW 20:37:56 65° ESE 20:44:29 10° NE
NOSS 3-3 (C) 4.0 20:32:06 10° SSW 20:38:03 65° ESE 20:44:35 10° NE
FREGAT/IRIS 4.4 20:37:45 10° SSW 20:40:28 34° W 20:43:13 10° NNW
Meteor 2-15 Rocket 4.5 20:35:37 10° N 20:41:47 74° E 20:47:53 10° SSE
Cosmos 1633 Rocket 3.1 20:37:49 10° N 20:42:09 64° E 20:46:28 10° SSE
BREEZE-M DEB (TANK) 3.1 20:39:34 10° W 20:43:01 46° NNW 20:45:10 10° NE
Nadezhda 3 Rocket 4.1 20:40:33 10° N 20:46:54 81° E 20:53:15 10° S
BREEZE-M DEB (TANK) 4.0 20:37:13 10° W 20:48:10 55° NNW 20:51:27 10° ENE
SL-16 R/B 3.7 20:47:14 10° SE 20:50:29 16° E 20:53:45 10° ENE
Cosmos 1515 Rocket 4.1 20:51:19 10° SSE 20:55:28 40° E 20:59:39 10° NNE
SJ-11-01 4.4 20:56:17 10° SSE 21:00:51 59° ENE 21:05:28 10° N
ATLAS CENTAUR R/B 1.0 20:59:07 10° SSW 21:02:47 84° ESE 21:06:37 10° NE
Meteor 2-3 Rocket 3.7 20:59:09 10° N 21:04:47 85° E 21:10:27 10° S
Cosmos 2228 Rocket 3.2 21:01:13 10° SSE 21:05:27 50° E 21:09:44 10° NNE
SJ-6B 4.2 21:02:46 10° S 21:06:34 40° W 21:10:19 10° NNW
H-2A R/B 3.4 21:05:15 13° ESE 21:08:24 22° ENE 21:12:06 10° NNE
Cosmos 1408 2.8 21:08:00 10° N 21:11:35 49° E 21:14:42 13° SSE
Cosmos 1328 Rocket 3.6 21:08:35 10° S 21:13:00 90° SW 21:17:29 10° N
Envisat 4.1 21:09:43 10° S 21:14:33 44° W 21:19:25 10° NNW
Cosmos 1980 3.7 21:10:12 10° SSW 21:15:50 69° ESE 21:21:30 10° NNE
Cosmos 1869 3.9 21:12:19 10° SSE 21:16:01 36° E 21:19:44 10° NNE
Cosmos 1939 Rocket 3.1 21:13:11 10° S 21:17:02 66° W 21:20:57 10° NNW
NOSS 3 (A) 4.4 21:17:55 10° SW 21:20:40 88° SE 21:23:49 10° NE
Cosmos 2297 4.5 21:15:47 10° N 21:21:02 37° NE 21:24:41 18° ESE
ERS-2 3.7 21:17:51 10° SSW 21:21:13 35° W 21:24:39 10° NNW
Cosmos 2369 Rocket 4.4 21:23:01 10° NNE 21:24:51 11° NE 21:26:40 10° ENE
Cosmos 1844 Rocket 4.5 21:21:16 10° NW 21:26:06 30° WSW 21:30:54 10° SSW
Cosmos 1470 Rocket 3.6 21:21:54 10° N 21:26:20 82° W 21:30:45 10° S
Cosmos 1455 3.2 21:23:17 10° SSW 21:27:01 50° W 21:30:48 10° N
Cosmos 2056 Rocket 3.9 21:22:56 10° S 21:28:02 43° ESE 21:33:08 10° NNE
Cosmos 2333 Rocket 2.8 21:23:25 10° SW 21:29:00 62° WNW 21:34:38 10° NNE
YAOGAN 6 3.9 21:26:29 10° SSW 21:29:52 39° W 21:33:20 10° NNW
SL-8 R/B 3.6 21:25:09 10° WSW 21:29:56 77° SSE 21:34:45 10° ENE
Resurs 01 Rocket 2.2 21:26:51 10° S 21:31:13 57° W 21:35:36 10° NNW
Cosmos 1441 Rocket 4.3 21:31:11 23° E 21:31:25 23° E 21:34:25 10° NE
Cosmos 1959 Rocket 4.4 21:27:52 10° S 21:33:58 68° E 21:40:03 10° NNE
COSMOS 2428 4.5 21:29:08 10° WSW 21:34:23 36° NW 21:39:38 10° N
Lacrosse 5 3.9 21:30:36 10° NW 21:34:24 21° NNE 21:38:11 10° ENE
Cosmos 1727 Rocket 4.2 21:29:52 10° N 21:35:54 53° ENE 21:40:09 20° SSE
SPOT 5 4.2 21:37:49 18° E 21:39:06 21° ENE 21:42:24 10° NNE
Cosmos 2098 Rocket 2.9 21:34:52 10° S 21:39:27 58° E 21:43:06 10° NNE
Cosmos 2219 Rocket 3.5 21:34:09 10° SW 21:39:33 44° WNW 21:44:57 10° NNE
NOSS 0 Rocket 4.2 21:33:49 10° SSW 21:39:59 74° WNW 21:46:13 10° NNE
Cosmos 2237 Rocket 2.3 21:37:18 10° SSW 21:42:55 80° WNW 21:48:35 10° NNE
Cosmos 1624 Rocket 3.9 21:39:39 10° S 21:44:46 64° ESE 21:49:55 10° NNE
Cosmos 1140 Rocket 4.4 21:40:51 10° N 21:45:30 33° ENE 21:47:30 25° E
Cosmos 405 3.1 21:42:34 10° N 21:46:01 51° ENE 21:46:53 40° SE
Cosmos 1190 Rocket 4.1 21:41:04 10° NNW 21:46:20 64° ENE 21:49:07 27° SE
ATLAS 5 CENTAUR R/B 4.2 21:45:49 10° NNW 21:49:51 19° NNE 21:54:08 10° ENE
ATLAS 2AS CENTAUR R/B 3.7 21:43:01 10° NW 21:50:28 48° WSW 21:56:48 12° S
Cosmos 2278 Rocket 2.8 21:46:06 10° NNW 21:51:38 55° WSW 21:56:09 15° S
SL-08 RB Rocket 4.0 21:50:15 32° SE 21:51:56 49° ENE 21:56:15 10° N
Cosmos 2218 Rocket 4.1 21:47:32 10° S 21:53:54 85° W 22:00:22 10° N
Cosmos 1933 Rocket 4.4 21:50:33 10° NNW 21:54:47 48° W 21:58:47 11° SSW
Cosmos 1151 Rocket 4.0 21:51:01 10° SSW 21:55:07 46° WNW 21:59:16 10° N
Helios 1B rocket 4.3 21:52:29 10° NE 21:54:10 17° ENE 21:54:10 17° ENE
Spot 2 Rocket 4.4 21:52:22 10° S 21:57:15 46° W 22:02:09 10° NNW
SL-08 R/B 4.5 21:51:54 10° S 21:58:14 84° E 22:04:42 10° N
Cosmos 405 Rocket 2.9 22:01:59 48° ESE 22:02:18 50° E 22:06:08 10° NNE
Cosmos 2366 rocket 4.1 21:57:43 10° S 22:03:57 79° W 22:10:17 10° N
Cosmos 1862 3.3 22:00:39 10° N 22:04:40 63° E 22:05:27 50° SE
Cosmos 1437 Rocket 4.5 22:02:50 10° NNE 22:05:19 20° ENE 22:05:19 20° ENE
Cosmos 1707 Rocket 3.7 22:09:25 48° ESE 22:09:52 50° E 22:14:04 10° NNE
Cosmos 1825 3.8 22:07:01 10° NNW 22:10:27 32° W 22:13:04 15° SSW
GEOS 3 Rocket 3.9 22:11:41 10° NE 22:16:50 45° ESE 22:17:47 41° SSE
Cosmos 1869 Rocket 3.4 22:13:06 10° N 22:17:29 89° W 22:18:36 50° S
Helios 1A 3.0 22:18:13 55° E 22:18:38 58° ENE 22:22:46 10° N
NOSS 3-4 (A) 3.8 22:14:12 10° NW 22:21:17 82° SW 22:24:48 35° SSE
NOSS 3-4 (C) 3.8 22:14:18 10° NW 22:21:22 83° SW 22:24:54 35° SSE
Cosmos 1733 Rocket 4.0 22:23:48 10° N 22:27:24 33° ENE 22:27:24 33° ENE
CZ-4C R/B 3.0 22:30:40 33° E 22:30:40 33° E 22:34:31 10° NE
USA 267 3.5 22:23:33 10° ENE 22:29:43 43° SE 22:35:51 10° SSW
Cosmos 614 Rocket 3.9 22:24:48 10° NNW 22:30:03 78° ENE 22:31:09 56° SE
Cosmos 1420 Rocket 4.2 22:30:37 50° ESE 22:30:43 50° ESE 22:35:52 10° NNE
ERS-1 Rocket 3.0 22:30:03 45° S 22:31:37 77° WSW 22:36:40 10° NNW
ARGOS 3.6 22:29:23 28° SSW 22:32:02 56° W 22:37:19 10° NNW
MetOp-B 4.4 22:30:03 33° S 22:32:24 63° WSW 22:37:43 10° NNW
SL-16 R/B 2.3 22:28:14 10° SSW 22:33:53 76° WNW 22:39:34 10° NNE
Landsat 7 4.0 22:34:15 51° E 22:34:31 52° ENE 22:39:09 10° N
Cosmos 1943 Rocket 3.6 22:30:18 10° N 22:34:41 23° NE 22:35:53 22° ENE
Cosmos 407 Rocket 4.1 22:30:58 10° NNW 22:35:54 49° WSW 22:37:42 34° SSW
DMSP B5D2-2 4.0 22:31:05 10° NNE 22:36:19 66° E 22:37:07 57° SSE
SPOT 1/Viking Rocket 3.5 22:38:29 60° SE 22:39:22 75° ENE 22:44:36 10° N
Cosmos 2344 3.5 22:34:07 10° SSW 22:41:39 70° ESE 22:49:55 10° NE
IGS 5A 4.3 22:42:30 39° NE 22:42:30 39° NE 22:45:49 10° N
H-2A R/B 2.6 22:45:53 36° SSW 22:47:29 49° W 22:52:19 10° NNW
SL-24 R/B 4.5 22:47:48 65° ESE 22:48:19 70° E 22:53:23 10° N
Cosmos 1933 3.6 22:51:36 66° NW 22:51:36 66° NW 22:55:26 10° N
Terra 2.2 22:52:36 51° ENE 22:52:36 51° ENE 22:56:58 10° N
Cosmos 2242 Rocket 4.3 22:56:32 43° NE 22:56:32 43° NE 22:59:41 10° NNE
Cosmos 1934 Rocket 3.8 22:55:47 62° SE 22:56:30 68° E 23:02:31 10° NNE
Cosmos 676 Rocket 4.5 22:52:15 10° NNW 22:57:21 52° WSW 22:58:14 46° SW
Cosmos 1603 3.8 23:01:42 56° ENE 23:01:42 56° ENE 23:06:33 10° NNE
Cosmos 1943 4.5 23:05:58 27° ENE 23:05:58 27° ENE 23:09:00 10° NE
USA 234 4.1 23:00:50 25° ENE 23:04:09 43° NNE 23:10:15 10° NW
Meteor 1-14 Rocket 4.0 23:04:23 10° N 23:09:58 77° E 23:09:59 77° E
Cosmos 2369 Rocket 2.4 23:04:37 10° NNW 23:10:15 55° ENE 23:10:23 55° ENE
Cosmos 1452 Rocket 3.9 23:09:19 44° SW 23:10:46 62° WNW 23:16:00 10° NNE
SL-8 R/B 4.4 23:08:02 10° W 23:12:43 50° N 23:13:45 42° NNE
SPOT 5 3.6 23:17:03 42° W 23:17:03 42° W 23:21:12 10° NNW
Lacrosse 5 2.4 23:13:26 10° NW 23:18:19 51° NNE 23:18:19 51° NNE
CZ-2C R/B 3.7 23:17:28 10° NNE 23:20:56 33° ENE 23:20:56 33° ENE
Cosmos 1862 Rocket 4.5 23:27:27 46° NNW 23:27:27 46° NNW 23:30:39 10° N
Cosmos 1850 Rocket 4.2 23:23:04 10° NNW 23:27:44 66° WNW 23:27:44 66° WNW
Helios 1B rocket 3.8 23:27:04 10° N 23:30:32 36° WNW 23:30:32 36° WNW
Meteor 1-25 Rocket 4.2 23:25:39 10° NNW 23:31:19 75° W 23:31:19 75° W
Cosmos 921 Rocket 4.4 23:36:19 34° N 23:36:19 34° N 23:38:51 10° NNE
ATLAS 5 CENTAUR R/B 2.5 23:29:39 10° NNW 23:35:33 68° NE 23:35:40 68° ENE
Cosmos 1741 Rocket 4.4 23:31:23 10° NNW 23:36:07 59° WNW 23:36:07 59° WNW
Cosmos 2123 Rocket 4.2 23:34:57 10° NNW 23:41:09 60° W 23:41:43 58° WSW
RESURS DK-1 4.1 23:42:33 10° NNW 23:44:48 31° NNW 23:44:48 31° NNW
BREEZE M DEB (TANK) 4.0 23:36:11 10° W 23:46:47 48° N 23:47:55 40° NNE
